Погода в Карабаше

Россия / Челябинская область     55°29′26″N   60°12′10″E
темп.,
°C
ветер,
м/с
пор.,
м/с
влажн.,
%
обл.,
%
осадки,
мм/ч
давл.,
гПа
погр.,
м
1 марта, пн
пн123:00−17всв1298100 0.6 101188
02:00−18св1198100 0.1 101233
05:00−18св1198100 0.4 101447
08:00−18св1198100 0.3 101537
11:00−15в118997 0.4 1016291
14:00−12вюв1188100 0.2 1016365
17:00−12вюв2293100 0.3 1016287
20:00−16ююв1198100 0.1 101720
2 марта, вт
вт223:00−15ююз1297100 0.1 101721
02:00−16з239495 0.0 101660
05:00−18з239481 0.0 101579
08:00−20зюз129652 0.0 101424
11:00−12юз138526 0.0 1012333
14:00−7ююз268158 0.0 1008681
17:00−6ю368579 0.0 1006706
20:00−9ююз2596100 0.1 1004137
3 марта, ср
ср323:00−11зюз2492100 0.2 1003172
02:00−11юз2493100 0.0 1002173
05:00−11ююз2493100 0.0 1000124
08:00−10ююз2493100 0.0 998123
11:00−3зюз498482 0.0 998649
14:00−2зюз5108079 0.1 9971124
17:00−3з5108388 0.1 998972
20:00−7зюз269157 0.0 999136
4 марта, чт
чт423:00−8зюз2109161 0.0 1000300
02:00−9з2792100 0.0 999207
05:00−10зюз2892100 0.0 1000258
08:00−9з21091100 0.0 999324
11:00−6зсз5118499 0.0 1000799
14:00−6зсз6107950 0.0 10011188
17:00−7з5108174 0.1 10031077
20:00−11зюз3128963 0.0 1004519
5 марта, пт
пт523:00−12юз289077 0.0 1004203
02:00−10ююз3988100 0.0 1001380
05:00−9ююз31488100 0.0 998790
08:00−8ююз4168996 0.1 995919
11:00−1зюз10198173 0.1 9941489
14:00−2з10206345 0.7 9972017
17:00−4з9177831 0.8 10021315
20:00−7з7168320 0.1 1005879